KE6AFE Weather Reports


time (UTC)temp
C
wind
direction
speed
KPH
gust
KPH
rain 1hr
cm
rain 24hr
cm
rain mn
cm
humidity
%
barometer
mb
20260902002837 22 1 0.0 0.0 0.00 0.00 0.00 52 1016.9
20260902001827 22 1 0.0 0.0 0.00 0.00 0.00 53 1016.9
20260902000817 22 1 0.0 0.0 0.00 0.00 0.00 53 1016.9
20260901235807 22 1 0.0 0.0 0.00 0.00 0.00 51 1016.9
20260901234757 22 1 0.0 0.0 0.00 0.00 0.00 53 1017.0
20260901233747 22 1 0.0 0.0 0.00 0.00 0.00 53 1017.0
20260901232737 22 1 0.0 0.0 0.00 0.00 0.00 52 1017.1
20260901231727 22 1 0.0 0.0 0.00 0.00 0.00 51 1017.2
20260901230717 22 1 0.0 0.0 0.00 0.00 0.00 50 1017.3
20260901225707 22 1 0.0 0.0 0.00 0.00 0.00 47 1017.3
20260901224657 23 1 0.0 0.0 0.00 0.00 0.00 46 1017.3
20260901223647 23 1 0.0 0.0 0.00 0.00 0.00 47 1017.4
20260901222637 23 1 0.0 0.0 0.00 0.00 0.00 48 1017.4
20260901221627 23 1 0.0 0.0 0.00 0.00 0.00 47 1017.4
20260901220617 23 1 0.0 0.0 0.00 0.00 0.00 47 1017.5
20260901215607 23 1 0.0 0.0 0.00 0.00 0.00 48 1017.6
20260901214557 23 1 0.0 0.0 0.00 0.00 0.00 50 1017.7
20260901213546 22 1 0.0 0.0 0.00 0.00 0.00 49 1017.6
20260901212536 22 1 0.0 0.0 0.00 0.00 0.00 49 1017.6
20260901211526 22 1 0.0 0.0 0.00 0.00 0.00 48 1017.5
20260901210516 22 1 0.0 0.0 0.00 0.00 0.00 50 1017.6
20260901205506 22 1 0.0 0.0 0.00 0.00 0.00 50 1017.7
20260901204456 22 1 0.0 0.0 0.00 0.00 0.00 50 1017.6
20260901203446 21 1 0.0 0.0 0.00 0.00 0.00 51 1017.7
20260901202436 21 1 0.0 0.0 0.00 0.00 0.00 52 1017.8
20260901201426 21 1 0.0 0.0 0.00 0.00 0.00 52 1017.8
20260901200416 21 1 0.0 0.0 0.00 0.00 0.00 54 1018.0
20260901195406 21 1 0.0 0.0 0.00 0.00 0.00 59 1018.0
20260901194356 20 1 0.0 0.0 0.00 0.00 0.00 63 1018.0
20260901193346 20 1 0.0 0.0 0.00 0.00 0.00 64 1018.1
20260901192336 20 0 0.0 0.0 0.00 0.00 0.00 64 1018.0
20260901191326 20 1 0.0 0.0 0.00 0.00 0.00 64 1018.0
20260901190316 20 1 0.0 0.0 0.00 0.00 0.00 63 1018.0
20260901185306 20 1 0.0 0.0 0.00 0.00 0.00 62 1017.9
20260901184256 20 1 0.0 0.0 0.00 0.00 0.00 59 1017.8
20260901183246 20 1 0.0 0.0 0.00 0.00 0.00 58 1017.9
20260901182236 20 1 0.0 0.0 0.00 0.00 0.00 59 1017.9
20260901181226 20 1 0.0 0.0 0.00 0.00 0.00 58 1017.8
20260901180216 20 1 0.0 0.0 0.00 0.00 0.00 59 1017.7
20260901175206 19 1 0.0 0.0 0.00 0.00 0.00 61 1017.7
20260901174156 19 1 0.0 0.0 0.00 0.00 0.00 62 1017.7
20260901173146 18 1 0.0 0.0 0.00 0.00 0.00 63 1017.6
20260901172136 18 1 0.0 0.0 0.00 0.00 0.00 63 1017.4
20260901171126 18 1 0.0 0.0 0.00 0.00 0.00 63 1017.4
20260901170116 18 2 0.0 0.0 0.00 0.00 0.00 58 1017.2
20260901165106 18 1 0.0 0.0 0.00 0.00 0.00 58 1017.0
20260901164056 18 0 0.0 0.0 0.00 0.00 0.00 60 1017.0
20260901163046 17 1 0.0 0.0 0.00 0.00 0.00 61 1017.0
20260901162036 17 1 0.0 0.0 0.00 0.00 0.00 61 1017.1
20260901161026 17 2 0.0 0.0 0.00 0.00 0.00 62 1017.2
20260901160016 17 1 0.0 0.0 0.00 0.00 0.00 63 1017.1
20260901155006 17 2 0.0 0.0 0.00 0.00 0.00 63 1016.9
20260901153956 16 2 0.0 0.0 0.00 0.00 0.00 64 1016.6
20260901152946 16 1 0.0 0.0 0.00 0.00 0.00 64 1016.5
20260901151936 16 1 0.0 0.0 0.00 0.00 0.00 64 1016.6
20260901150926 16 1 0.0 0.0 0.00 0.00 0.00 64 1016.7
20260901145916 16 1 0.0 0.0 0.00 0.00 0.00 64 1016.5
20260901144906 16 1 0.0 0.0 0.00 0.00 0.00 64 1016.4
20260901143856 16 2 0.0 0.0 0.00 0.00 0.00 64 1016.3
20260901142846 16 2 0.0 0.0 0.00 0.00 0.00 64 1016.1
20260901141836 16 2 0.0 0.0 0.00 0.00 0.00 64 1016.0
20260901140826 16 1 0.0 0.0 0.00 0.00 0.00 64 1015.9
20260901135816 16 2 0.0 0.0 0.00 0.00 0.00 64 1015.7
20260901134806 16 1 0.0 0.0 0.00 0.00 0.00 64 1015.6
20260901133756 16 1 0.0 0.0 0.00 0.00 0.00 64 1015.5
20260901132746 16 1 0.0 0.0 0.00 0.00 0.00 63 1015.5
20260901131736 16 1 0.0 0.0 0.00 0.00 0.00 63 1015.5
20260901130726 16 1 0.0 0.0 0.00 0.00 0.00 63 1015.4
20260901125716 16 1 0.0 0.0 0.00 0.00 0.00 63 1015.3
20260901124706 16 1 0.0 0.0 0.00 0.00 0.00 63 1015.2
20260901123656 16 2 0.0 0.0 0.00 0.00 0.00 63 1015.3
20260901122646 16 2 0.0 0.0 0.00 0.00 0.00 63 1015.2
20260901121636 16 2 0.0 0.0 0.00 0.00 0.00 63 1015.2
20260901120626 16 1 0.0 0.0 0.00 0.00 0.00 62 1015.0
20260901115616 16 1 0.0 0.0 0.00 0.00 0.00 62 1015.1
20260901114606 16 1 0.0 0.0 0.00 0.00 0.00 62 1015.2
20260901113556 16 1 0.0 0.0 0.00 0.00 0.00 62 1015.3
20260901112546 16 1 0.0 0.0 0.00 0.00 0.00 62 1015.4
20260901111536 16 2 0.0 0.0 0.00 0.00 0.00 62 1015.4
20260901110526 16 2 0.0 0.0 0.00 0.00 0.00 62 1015.2
20260901105516 16 2 0.0 0.0 0.00 0.00 0.00 62 1015.3
20260901104506 16 1 0.0 0.0 0.00 0.00 0.00 62 1015.1
20260901103456 16 1 0.0 0.0 0.00 0.00 0.00 61 1015.0
20260901102446 16 1 0.0 0.0 0.00 0.00 0.00 61 1015.0
20260901101436 16 2 0.0 0.0 0.00 0.00 0.00 61 1015.0
20260901100426 16 2 0.0 0.0 0.00 0.00 0.00 62 1015.0
20260901095416 16 2 0.0 0.0 0.00 0.00 0.00 62 1015.2
20260901094406 16 2 0.0 0.0 0.00 0.00 0.00 62 1015.0
20260901093356 16 2 0.0 0.0 0.00 0.00 0.00 63 1015.0
20260901092346 16 1 0.0 0.0 0.00 0.00 0.00 63 1015.0
20260901091336 16 2 0.0 0.0 0.00 0.00 0.00 63 1014.9
20260901090326 16 2 0.0 0.0 0.00 0.00 0.00 63 1015.0
20260901085316 16 1 0.0 0.0 0.00 0.00 0.00 63 1014.9
20260901084306 16 2 0.0 0.0 0.00 0.00 0.00 63 1014.9
20260901083255 16 2 0.0 0.0 0.00 0.00 0.00 63 1014.9
20260901082246 16 2 0.0 0.0 0.00 0.00 0.00 63 1014.9
20260901081236 16 2 0.0 0.0 0.00 0.00 0.00 63 1014.9
20260901080226 16 2 0.0 0.0 0.00 0.00 0.00 63 1014.9
20260901075215 16 2 0.0 0.0 0.00 0.00 0.00 63 1014.9
20260901074206 16 1 0.0 0.0 0.00 0.00 0.00 63 1015.0
20260901073155 16 2 0.0 0.0 0.00 0.00 0.00 63 1015.1
20260901072145 16 2 0.0 0.0 0.00 0.00 0.00 63 1015.1
20260901071136 16 2 0.0 0.0 0.00 0.00 0.00 63 1015.0
20260901070125 16 2 0.0 0.0 0.00 0.00 0.00 63 1015.1
20260901065116 17 1 0.0 0.0 0.00 0.00 0.00 63 1015.2
20260901064106 17 1 0.0 0.0 0.00 0.00 0.00 63 1015.1
20260901063056 17 2 0.0 0.0 0.00 0.00 0.00 63 1015.1
20260901062046 17 2 0.0 0.0 0.00 0.00 0.00 63 1015.1
20260901061036 17 2 0.0 0.0 0.00 0.00 0.00 63 1015.3
20260901060026 17 1 0.0 0.0 0.00 0.00 0.00 64 1015.2
20260901055015 17 2 0.0 0.0 0.00 0.00 0.00 63 1015.3
20260901054006 17 1 0.0 0.0 0.00 0.00 0.00 63 1015.3
20260901052956 17 1 0.0 0.0 0.00 0.00 0.00 63 1015.4
20260901051945 17 1 0.0 0.0 0.00 0.00 0.00 63 1015.4
20260901050936 17 1 0.0 0.0 0.00 0.00 0.00 63 1015.5
20260901045925 17 1 0.0 0.0 0.00 0.00 0.00 63 1015.2
20260901044915 17 2 0.0 0.0 0.00 0.00 0.00 63 1015.0
20260901043905 17 1 0.0 0.0 0.00 0.00 0.00 62 1015.0
20260901042855 17 34 0.0 0.0 0.00 0.00 0.00 62 1014.9
20260901041845 17 0 0.0 0.0 0.00 0.00 0.00 61 1014.8
20260901040835 18 0 0.0 0.0 0.00 0.00 0.00 61 1014.7
20260901035825 18 0 0.0 0.0 0.00 0.00 0.00 61 1014.7
20260901034815 18 0 0.0 0.0 0.00 0.00 0.00 61 1014.5
20260901033805 18 0 0.0 0.0 0.00 0.00 0.00 63 1014.5
20260901032755 18 0 0.0 0.0 0.00 0.00 0.00 63 1014.3
20260901031746 18 0 0.0 0.0 0.00 0.00 0.00 63 1014.2
20260901030735 19 0 0.0 0.0 0.00 0.00 0.00 62 1014.3
20260901025725 19 0 0.0 0.0 0.00 0.00 0.00 61 1014.2
20260901024715 20 0 0.0 0.0 0.00 0.00 0.00 60 1014.0
20260901023705 20 0 0.0 0.0 0.00 0.00 0.00 58 1013.9
20260901022655 20 1 0.0 0.0 0.00 0.00 0.00 56 1014.0
20260901021645 20 1 0.0 0.0 0.00 0.00 0.00 56 1014.0
20260901020635 20 1 0.0 0.0 0.00 0.00 0.00 56 1013.9
20260901015626 21 1 0.0 0.0 0.00 0.00 0.00 56 1014.0
20260901014615 21 1 0.0 0.0 0.00 0.00 0.00 55 1013.9
20260901013605 21 1 0.0 0.0 0.00 0.00 0.00 55 1013.7
20260901012555 21 1 0.0 0.0 0.00 0.00 0.00 55 1013.8
20260901011545 21 1 0.0 0.0 0.00 0.00 0.00 55 1014.0
20260901010536 22 1 0.0 0.0 0.00 0.00 0.00 54 1014.0
20260901005525 22 1 0.0 0.0 0.00 0.00 0.00 53 1014.1
20260901004515 22 1 0.0 0.0 0.00 0.00 0.00 52 1014.1
20260901003505 22 1 0.0 0.0 0.00 0.00 0.00 51 1014.2